Time,TemperatureF,DewpointF,PressureIn,WindDirection,WindDirectionDegrees,WindSpeedMPH,WindSpeedGustMPH,Humidity,HourlyPrecipIn,Conditions,Clouds,dailyrainin,SolarRadiationWatts/m^2,SoftwareType,DateUTC
2013-05-13 00:01:00,61.8,47.8,29.93,NE,46,1.0,5.0,60,0.00,,---,0.00,0.00,VWS V14.01,2013-05-13 07:01:00,
2013-05-13 00:06:00,61.7,46.8,29.93,ENE,60,4.0,6.0,58,0.00,,---,0.00,0.00,VWS V14.01,2013-05-13 07:06:00,
2013-05-13 00:11:00,61.6,46.7,29.93,NE,36,3.0,7.0,58,0.00,,---,0.00,0.00,VWS V14.01,2013-05-13 07:11:00,
2013-05-13 00:16:00,61.5,46.6,29.93,NNE,24,7.0,10.0,58,0.00,,---,0.00,0.00,VWS V14.01,2013-05-13 07:16:00,
2013-05-13 00:21:00,61.4,47.0,29.92,NNE,30,4.0,10.0,59,0.00,,---,0.00,0.00,VWS V14.01,2013-05-13 07:21:00,
2013-05-13 00:26:00,61.3,46.4,29.93,North,11,10.0,11.0,58,0.00,,---,0.00,0.00,VWS V14.01,2013-05-13 07:26:00,
2013-05-13 00:31:00,61.2,45.4,29.93,North,5,4.0,9.0,56,0.00,,---,0.00,0.00,VWS V14.01,2013-05-13 07:31:00,
2013-05-13 00:36:00,61.1,45.8,29.92,NE,41,4.0,11.0,57,0.00,,---,0.00,0.00,VWS V14.01,2013-05-13 07:36:00,
2013-05-13 00:41:00,61.0,45.7,29.92,North,9,6.0,11.0,57,0.00,,---,0.00,0.00,VWS V14.01,2013-05-13 07:41:00,
2013-05-13 00:46:00,60.8,45.5,29.92,North,5,8.0,11.0,57,0.00,,---,0.00,0.00,VWS V14.01,2013-05-13 07:46:00,
2013-05-13 00:51:00,60.6,45.8,29.92,NE,43,5.0,12.0,58,0.00,,---,0.00,0.00,VWS V14.01,2013-05-13 07:51:00,
2013-05-13 00:56:00,60.5,45.7,29.92,North,355,8.0,12.0,58,0.00,,---,0.00,0.00,VWS V14.01,2013-05-13 07:56:00,
2013-05-13 01:01:00,60.4,45.6,29.92,North,349,5.0,5.0,58,0.00,,---,0.00,0.00,VWS V14.01,2013-05-13 08:01:00,
2013-05-13 01:06:00,60.2,45.4,29.91,NE,36,6.0,12.0,58,0.00,,---,0.00,0.00,VWS V14.01,2013-05-13 08:06:00,
2013-05-13 01:11:00,60.1,45.3,29.91,North,9,4.0,12.0,58,0.00,,---,0.00,0.00,VWS V14.01,2013-05-13 08:11:00,
2013-05-13 01:16:00,59.9,45.5,29.92,NNW,339,5.0,12.0,59,0.00,,---,0.00,0.00,VWS V14.01,2013-05-13 08:16:00,
2013-05-13 01:21:00,59.8,45.5,29.92,NNE,30,4.0,12.0,59,0.00,,---,0.00,0.00,VWS V14.01,2013-05-13 08:21:00,
2013-05-13 01:26:00,59.6,44.8,29.91,NNW,342,5.0,12.0,58,0.00,,---,0.00,0.00,VWS V14.01,2013-05-13 08:26:00,
2013-05-13 01:31:00,59.4,44.6,29.91,NNE,12,4.0,4.0,58,0.00,,---,0.00,0.00,VWS V14.01,2013-05-13 08:31:00,
2013-05-13 01:36:00,59.3,44.5,29.91,North,355,3.0,10.0,58,0.00,,---,0.00,0.00,VWS V14.01,2013-05-13 08:36:00,
2013-05-13 01:41:00,59.1,44.8,29.91,NNE,27,4.0,10.0,59,0.00,,---,0.00,0.00,VWS V14.01,2013-05-13 08:41:00,
2013-05-13 01:46:00,59.0,44.3,29.91,North,350,6.0,10.0,58,0.00,,---,0.00,0.00,VWS V14.01,2013-05-13 08:46:00,
2013-05-13 01:51:00,59.0,44.3,29.91,NNE,27,7.0,10.0,58,0.00,,---,0.00,0.00,VWS V14.01,2013-05-13 08:51:00,
2013-05-13 01:56:00,58.9,44.2,29.90,North,350,4.0,10.0,58,0.00,,---,0.00,0.00,VWS V14.01,2013-05-13 08:56:00,
2013-05-13 02:01:00,58.8,44.1,29.90,North,355,5.0,6.0,58,0.00,,---,0.00,0.00,VWS V14.01,2013-05-13 09:01:00,
2013-05-13 02:06:00,58.6,43.9,29.90,NNE,22,2.0,8.0,58,0.00,,---,0.00,0.00,VWS V14.01,2013-05-13 09:06:00,
2013-05-13 02:11:00,58.4,43.7,29.90,North,350,3.0,8.0,58,0.00,,---,0.00,0.00,VWS V14.01,2013-05-13 09:11:00,
2013-05-13 02:16:00,58.3,43.6,29.90,NNW,340,3.0,9.0,58,0.00,,---,0.00,0.00,VWS V14.01,2013-05-13 09:16:00,
2013-05-13 02:21:00,58.3,43.6,29.90,NE,40,4.0,9.0,58,0.00,,---,0.00,0.00,VWS V14.01,2013-05-13 09:21:00,
2013-05-13 02:26:00,58.2,43.5,29.90,North,355,4.0,9.0,58,0.00,,---,0.00,0.00,VWS V14.01,2013-05-13 09:26:00,
2013-05-13 02:31:00,58.1,43.4,29.90,NNE,13,6.0,7.0,58,0.00,,---,0.00,0.00,VWS V14.01,2013-05-13 09:31:00,
2013-05-13 02:36:00,58.0,43.3,29.90,NNW,340,5.0,9.0,58,0.00,,---,0.00,0.00,VWS V14.01,2013-05-13 09:36:00,
2013-05-13 02:41:00,57.8,43.6,29.90,North,5,6.0,9.0,59,0.00,,---,0.00,0.00,VWS V14.01,2013-05-13 09:41:00,
2013-05-13 02:46:00,57.7,43.5,29.90,NNE,12,5.0,9.0,59,0.00,,---,0.00,0.00,VWS V14.01,2013-05-13 09:46:00,
2013-05-13 02:51:00,57.6,43.4,29.90,North,355,5.0,9.0,59,0.00,,---,0.00,0.00,VWS V14.01,2013-05-13 09:51:00,
2013-05-13 02:56:00,57.6,43.4,29.90,NNW,345,3.0,9.0,59,0.00,,---,0.00,0.00,VWS V14.01,2013-05-13 09:56:00,
2013-05-13 03:01:00,57.5,43.3,29.90,NNW,338,3.0,4.0,59,0.00,,---,0.00,0.00,VWS V14.01,2013-05-13 10:01:00,
2013-05-13 03:06:00,57.4,43.2,29.90,NNW,344,1.0,7.0,59,0.00,,---,0.00,0.00,VWS V14.01,2013-05-13 10:06:00,
2013-05-13 03:11:00,57.3,43.5,29.91,SE,129,0.0,7.0,60,0.00,,---,0.00,0.00,VWS V14.01,2013-05-13 10:11:00,
2013-05-13 03:16:00,57.1,43.4,29.91,SW,224,4.0,7.0,60,0.00,,---,0.00,0.00,VWS V14.01,2013-05-13 10:16:00,
2013-05-13 03:21:00,56.5,44.1,29.91,South,179,0.0,7.0,63,0.00,,---,0.00,0.00,VWS V14.01,2013-05-13 10:21:00,
2013-05-13 03:26:00,55.9,44.7,29.91,WSW,252,1.0,7.0,66,0.00,,---,0.00,0.00,VWS V14.01,2013-05-13 10:26:00,
2013-05-13 03:31:00,55.4,45.0,29.91,WSW,242,1.0,3.0,68,0.00,,---,0.00,0.00,VWS V14.01,2013-05-13 10:31:00,
2013-05-13 03:36:00,55.1,44.7,29.91,SW,231,3.0,4.0,68,0.00,,---,0.00,0.00,VWS V14.01,2013-05-13 10:36:00,
2013-05-13 03:40:00,54.6,45.0,29.91,WSW,242,0.0,4.0,70,0.00,,---,0.00,0.00,VWS V14.01,2013-05-13 10:40:00,
2013-05-13 03:45:00,54.3,44.7,29.91,WSW,246,0.0,4.0,70,0.00,,---,0.00,0.00,VWS V14.01,2013-05-13 10:45:00,
2013-05-13 03:50:00,53.9,44.3,29.91,West,261,2.0,4.0,70,0.00,,---,0.00,0.00,VWS V14.01,2013-05-13 10:50:00,
2013-05-13 03:55:00,53.5,44.3,29.91,WSW,239,0.0,4.0,71,0.00,,---,0.00,0.00,VWS V14.01,2013-05-13 10:55:00,
2013-05-13 04:00:00,53.1,44.7,29.91,WSW,241,2.0,3.0,73,0.00,,---,0.00,0.00,VWS V14.01,2013-05-13 11:00:00,
2013-05-13 04:05:00,52.8,44.4,29.91,WSW,247,3.0,3.0,73,0.00,,---,0.00,0.00,VWS V14.01,2013-05-13 11:05:00,
2013-05-13 04:10:00,52.7,44.7,29.91,WSW,242,0.0,4.0,74,0.00,,---,0.00,0.00,VWS V14.01,2013-05-13 11:10:00,
2013-05-13 04:15:00,52.5,44.1,29.91,WSW,246,0.0,4.0,73,0.00,,---,0.00,0.00,VWS V14.01,2013-05-13 11:15:00,
2013-05-13 04:20:00,52.4,44.7,29.91,West,263,0.0,4.0,75,0.00,,---,0.00,0.00,VWS V14.01,2013-05-13 11:20:00,
2013-05-13 04:25:00,52.5,44.5,29.90,West,278,2.0,4.0,74,0.00,,---,0.00,0.00,VWS V14.01,2013-05-13 11:25:00,
2013-05-13 04:30:00,52.6,44.6,29.90,WSW,255,0.0,1.0,74,0.00,,---,0.00,0.00,VWS V14.01,2013-05-13 11:30:00,
2013-05-13 04:35:00,52.7,44.7,29.90,NNE,15,1.0,6.0,74,0.00,,---,0.00,0.00,VWS V14.01,2013-05-13 11:35:00,
2013-05-13 04:40:00,52.7,44.3,29.90,ENE,61,0.0,6.0,73,0.00,,---,0.00,0.00,VWS V14.01,2013-05-13 11:40:00,
2013-05-13 04:45:00,52.7,44.3,29.90,NNE,30,1.0,6.0,73,0.00,,---,0.00,0.00,VWS V14.01,2013-05-13 11:45:00,
2013-05-13 04:50:00,52.7,44.3,29.90,ENE,64,0.0,6.0,73,0.00,,---,0.00,0.00,VWS V14.01,2013-05-13 11:50:00,
2013-05-13 04:55:00,52.6,44.2,29.90,SSE,149,0.0,6.0,73,0.00,,---,0.00,0.00,VWS V14.01,2013-05-13 11:55:00,
2013-05-13 05:02:00,52.2,44.2,29.90,SW,226,0.0,0.0,74,0.00,,---,0.00,0.00,VWS V14.01,2013-05-13 12:02:00,
2013-05-13 05:07:00,51.9,43.9,29.90,West,277,0.0,3.0,74,0.00,,---,0.00,0.00,VWS V14.01,2013-05-13 12:07:00,
2013-05-13 05:12:00,51.5,43.8,29.90,West,277,0.0,3.0,75,0.00,,---,0.00,0.00,VWS V14.01,2013-05-13 12:12:00,
2013-05-13 05:17:00,51.2,43.9,29.90,West,277,0.0,3.0,76,0.00,,---,0.00,0.00,VWS V14.01,2013-05-13 12:17:00,
2013-05-13 05:22:00,51.0,44.0,29.91,West,277,0.0,3.0,77,0.00,,---,0.00,0.00,VWS V14.01,2013-05-13 12:22:00,
2013-05-13 05:27:00,50.9,44.0,29.91,West,277,0.0,3.0,77,0.00,,---,0.00,0.00,VWS V14.01,2013-05-13 12:27:00,
2013-05-13 05:32:00,50.9,44.0,29.90,West,261,0.0,1.0,77,0.00,,---,0.00,0.00,VWS V14.01,2013-05-13 12:32:00,
2013-05-13 05:37:00,50.9,44.3,29.90,WSW,242,0.0,3.0,78,0.00,,---,0.00,0.00,VWS V14.01,2013-05-13 12:37:00,
2013-05-13 05:42:00,50.8,44.2,29.90,WSW,242,0.0,3.0,78,0.00,,---,0.00,5.00,VWS V14.01,2013-05-13 12:42:00,
2013-05-13 05:47:00,50.8,45.5,29.90,East,85,0.0,3.0,82,0.00,,---,0.00,7.00,VWS V14.01,2013-05-13 12:47:00,
2013-05-13 05:52:00,50.7,44.4,29.90,NW,320,0.0,3.0,79,0.00,,---,0.00,9.00,VWS V14.01,2013-05-13 12:52:00,
2013-05-13 05:57:00,50.9,45.3,29.90,ENE,69,0.0,6.0,81,0.00,,---,0.00,11.00,VWS V14.01,2013-05-13 12:57:00,
2013-05-13 06:02:00,50.9,45.0,29.91,ENE,76,0.0,3.0,80,0.00,,---,0.00,12.00,VWS V14.01,2013-05-13 13:02:00,
2013-05-13 06:07:00,51.0,45.1,29.91,NW,311,4.0,5.0,80,0.00,,---,0.00,14.00,VWS V14.01,2013-05-13 13:07:00,
2013-05-13 06:12:00,51.3,44.7,29.91,SW,232,0.0,5.0,78,0.00,,---,0.00,16.00,VWS V14.01,2013-05-13 13:12:00,
2013-05-13 06:17:00,51.2,44.6,29.91,SW,232,0.0,5.0,78,0.00,,---,0.00,16.00,VWS V14.01,2013-05-13 13:17:00,
2013-05-13 06:22:00,51.1,44.8,29.91,North,5,0.0,5.0,79,0.00,,---,0.00,18.00,VWS V14.01,2013-05-13 13:22:00,
2013-05-13 06:27:00,51.2,45.2,29.91,NW,304,0.0,5.0,80,0.00,,---,0.00,19.00,VWS V14.01,2013-05-13 13:27:00,
2013-05-13 06:32:00,51.4,45.8,29.91,NNE,13,2.0,3.0,81,0.00,,---,0.00,21.00,VWS V14.01,2013-05-13 13:32:00,
2013-05-13 06:37:00,51.7,45.7,29.91,North,5,2.0,5.0,80,0.00,,---,0.00,21.00,VWS V14.01,2013-05-13 13:37:00,
2013-05-13 06:42:00,52.0,46.7,29.91,North,355,2.0,5.0,82,0.00,,---,0.00,23.00,VWS V14.01,2013-05-13 13:42:00,
2013-05-13 06:47:00,52.1,46.8,29.91,NNE,17,2.0,6.0,82,0.00,,---,0.00,25.00,VWS V14.01,2013-05-13 13:47:00,
2013-05-13 06:52:00,52.2,46.9,29.91,NE,49,0.0,6.0,82,0.00,,---,0.00,25.00,VWS V14.01,2013-05-13 13:52:00,
2013-05-13 06:57:00,52.3,47.0,29.92,NE,55,0.0,6.0,82,0.00,,---,0.00,26.00,VWS V14.01,2013-05-13 13:57:00,
2013-05-13 07:02:00,52.4,45.8,29.92,NNE,30,0.0,0.0,78,0.00,,---,0.00,30.00,VWS V14.01,2013-05-13 14:02:00,
2013-05-13 07:07:00,52.6,46.0,29.92,SSE,159,0.0,2.0,78,0.00,,---,0.00,30.00,VWS V14.01,2013-05-13 14:07:00,
2013-05-13 07:12:00,52.7,46.0,29.92,South,191,0.0,2.0,78,0.00,,---,0.00,28.00,VWS V14.01,2013-05-13 14:12:00,
2013-05-13 07:17:00,53.0,46.3,29.92,South,191,0.0,2.0,78,0.00,,---,0.00,32.00,VWS V14.01,2013-05-13 14:17:00,
2013-05-13 07:22:00,53.2,46.5,29.92,South,191,0.0,2.0,78,0.00,,---,0.00,49.00,VWS V14.01,2013-05-13 14:22:00,
2013-05-13 07:27:00,53.3,46.6,29.92,South,174,0.0,2.0,78,0.00,,---,0.00,42.00,VWS V14.01,2013-05-13 14:27:00,
2013-05-13 07:32:00,53.3,46.6,29.92,SSE,165,1.0,1.0,78,0.00,,---,0.00,49.00,VWS V14.01,2013-05-13 14:32:00,
2013-05-13 07:37:00,53.4,46.7,29.92,South,174,0.0,2.0,78,0.00,,---,0.00,35.00,VWS V14.01,2013-05-13 14:37:00,
2013-05-13 07:42:00,53.5,47.2,29.92,SSE,165,0.0,3.0,79,0.00,,---,0.00,35.00,VWS V14.01,2013-05-13 14:42:00,
2013-05-13 07:47:00,53.5,47.2,29.92,SSE,161,2.0,3.0,79,0.00,,---,0.00,37.00,VWS V14.01,2013-05-13 14:47:00,
2013-05-13 07:52:00,53.6,47.3,29.92,SW,221,0.0,3.0,79,0.00,,---,0.00,37.00,VWS V14.01,2013-05-13 14:52:00,
2013-05-13 07:57:00,53.8,47.5,29.92,SSE,153,1.0,3.0,79,0.00,,---,0.00,121.00,VWS V14.01,2013-05-13 14:57:00,
2013-05-13 08:02:00,54.0,47.3,29.92,SSE,165,0.0,2.0,78,0.00,,---,0.00,234.00,VWS V14.01,2013-05-13 15:02:00,
2013-05-13 08:07:00,54.1,47.4,29.92,SSE,167,3.0,3.0,78,0.00,,---,0.00,355.00,VWS V14.01,2013-05-13 15:07:00,
2013-05-13 08:12:00,54.6,47.5,29.92,South,175,2.0,3.0,77,0.00,,---,0.00,371.00,VWS V14.01,2013-05-13 15:12:00,
2013-05-13 08:17:00,54.9,47.5,29.92,South,182,0.0,3.0,76,0.00,,---,0.00,339.00,VWS V14.01,2013-05-13 15:17:00,
2013-05-13 08:22:00,55.3,47.9,29.92,South,171,2.0,4.0,76,0.00,,---,0.00,113.00,VWS V14.01,2013-05-13 15:22:00,
2013-05-13 08:27:00,55.6,47.5,29.92,SW,217,0.0,4.0,74,0.00,,---,0.00,232.00,VWS V14.01,2013-05-13 15:27:00,
2013-05-13 08:32:00,56.0,47.8,29.92,SSE,151,1.0,5.0,74,0.00,,---,0.00,60.00,VWS V14.01,2013-05-13 15:32:00,
2013-05-13 08:37:00,56.3,47.4,29.92,South,177,2.0,5.0,72,0.00,,---,0.00,116.00,VWS V14.01,2013-05-13 15:37:00,
2013-05-13 08:42:00,56.6,47.7,29.92,SSE,167,0.0,6.0,72,0.00,,---,0.00,91.00,VWS V14.01,2013-05-13 15:42:00,
2013-05-13 08:47:00,57.2,48.3,29.92,SW,235,2.0,6.0,72,0.00,,---,0.00,84.00,VWS V14.01,2013-05-13 15:47:00,
2013-05-13 08:52:00,57.8,47.7,29.92,SW,227,1.0,6.0,69,0.00,,---,0.00,79.00,VWS V14.01,2013-05-13 15:52:00,
2013-05-13 08:57:00,58.2,48.5,29.92,South,188,0.0,6.0,70,0.00,,---,0.00,146.00,VWS V14.01,2013-05-13 15:57:00,
2013-05-13 09:02:00,58.6,48.5,29.92,SE,130,2.0,3.0,69,0.00,,---,0.00,276.00,VWS V14.01,2013-05-13 16:02:00,
2013-05-13 09:07:00,58.9,48.0,29.91,South,178,0.0,3.0,67,0.00,,---,0.00,308.00,VWS V14.01,2013-05-13 16:07:00,
2013-05-13 09:12:00,59.4,48.0,29.91,South,170,1.0,3.0,66,0.00,,---,0.00,250.00,VWS V14.01,2013-05-13 16:12:00,
2013-05-13 09:17:00,59.8,48.8,29.91,East,100,0.0,5.0,67,0.00,,---,0.00,348.00,VWS V14.01,2013-05-13 16:17:00,
2013-05-13 09:22:00,60.1,48.3,29.91,East,87,2.0,5.0,65,0.00,,---,0.00,295.00,VWS V14.01,2013-05-13 16:22:00,
2013-05-13 09:27:00,60.3,48.1,29.90,SSE,167,0.0,5.0,64,0.00,,---,0.00,285.00,VWS V14.01,2013-05-13 16:27:00,
2013-05-13 09:32:00,60.8,49.4,29.90,NNE,13,1.0,4.0,66,0.00,,---,0.00,320.00,VWS V14.01,2013-05-13 16:32:00,
2013-05-13 09:37:00,61.2,48.5,29.91,NE,40,5.0,9.0,63,0.00,,---,0.00,301.00,VWS V14.01,2013-05-13 16:37:00,
2013-05-13 09:42:00,61.4,47.4,29.90,North,5,1.0,9.0,60,0.00,,---,0.00,285.00,VWS V14.01,2013-05-13 16:42:00,
2013-05-13 09:47:00,61.7,49.0,29.90,East,88,2.0,9.0,63,0.00,,---,0.00,707.00,VWS V14.01,2013-05-13 16:47:00,
2013-05-13 09:52:00,62.0,48.4,29.90,SSE,168,2.0,9.0,61,0.00,,---,0.00,763.00,VWS V14.01,2013-05-13 16:52:00,
2013-05-13 09:57:00,62.4,47.9,29.90,East,84,3.0,9.0,59,0.00,,---,0.00,821.00,VWS V14.01,2013-05-13 16:57:00,
2013-05-13 10:02:00,62.7,49.1,29.90,ENE,67,4.0,4.0,61,0.00,,---,0.00,239.00,VWS V14.01,2013-05-13 17:02:00,
2013-05-13 10:07:00,63.1,48.1,29.90,ESE,112,5.0,9.0,58,0.00,,---,0.00,239.00,VWS V14.01,2013-05-13 17:07:00,
2013-05-13 10:12:00,63.6,48.1,29.90,ENE,68,10.0,13.0,57,0.00,,---,0.00,896.00,VWS V14.01,2013-05-13 17:12:00,
2013-05-13 10:17:00,63.9,47.4,29.90,ENE,73,8.0,13.0,55,0.00,,---,0.00,265.00,VWS V14.01,2013-05-13 17:17:00,
2013-05-13 10:22:00,64.1,48.1,29.90,ENE,58,8.0,13.0,56,0.00,,---,0.00,745.00,VWS V14.01,2013-05-13 17:22:00,
2013-05-13 10:27:00,64.3,47.3,29.90,ENE,57,8.0,13.0,54,0.00,,---,0.00,318.00,VWS V14.01,2013-05-13 17:27:00,
2013-05-13 10:32:00,64.2,47.2,29.90,NE,45,7.0,11.0,54,0.00,,---,0.00,308.00,VWS V14.01,2013-05-13 17:32:00,
2013-05-13 10:37:00,64.4,47.9,29.90,NNE,31,9.0,13.0,55,0.00,,---,0.00,1049.00,VWS V14.01,2013-05-13 17:37:00,
2013-05-13 10:42:00,64.8,46.8,29.90,NE,55,9.0,15.0,52,0.00,,---,0.00,304.00,VWS V14.01,2013-05-13 17:42:00,
2013-05-13 10:47:00,65.1,47.1,29.91,NE,34,9.0,15.0,52,0.00,,---,0.00,279.00,VWS V14.01,2013-05-13 17:47:00,
2013-05-13 10:52:00,65.2,47.2,29.91,ENE,74,7.0,22.0,52,0.00,,---,0.00,1018.00,VWS V14.01,2013-05-13 17:52:00,
2013-05-13 10:57:00,65.5,47.4,29.91,NE,52,7.0,22.0,52,0.00,,---,0.00,935.00,VWS V14.01,2013-05-13 17:57:00,
2013-05-13 11:02:00,65.7,47.1,29.90,ESE,103,7.0,10.0,51,0.00,,---,0.00,926.00,VWS V14.01,2013-05-13 18:02:00,
2013-05-13 11:07:00,65.5,46.4,29.90,NE,42,9.0,16.0,50,0.00,,---,0.00,308.00,VWS V14.01,2013-05-13 18:07:00,
2013-05-13 11:12:00,65.5,46.9,29.90,ENE,57,9.0,16.0,51,0.00,,---,0.00,877.00,VWS V14.01,2013-05-13 18:12:00,
2013-05-13 11:17:00,65.9,48.3,29.90,East,80,6.0,16.0,53,0.00,,---,0.00,898.00,VWS V14.01,2013-05-13 18:17:00,
2013-05-13 11:22:00,66.6,47.4,29.90,NE,52,14.0,21.0,50,0.00,,---,0.00,976.00,VWS V14.01,2013-05-13 18:22:00,
2013-05-13 11:27:00,66.8,47.0,29.90,ENE,60,10.0,21.0,49,0.00,,---,0.00,960.00,VWS V14.01,2013-05-13 18:27:00,
2013-05-13 11:32:00,67.0,46.1,29.90,SE,138,7.0,12.0,47,0.00,,---,0.00,1021.00,VWS V14.01,2013-05-13 18:32:00,
2013-05-13 11:37:00,67.2,46.9,29.91,ENE,61,11.0,14.0,48,0.00,,---,0.00,946.00,VWS V14.01,2013-05-13 18:37:00,
2013-05-13 11:42:00,67.9,47.0,29.90,ENE,69,5.0,14.0,47,0.00,,---,0.00,1056.00,VWS V14.01,2013-05-13 18:42:00,
2013-05-13 11:47:00,68.6,47.0,29.90,ENE,76,12.0,19.0,46,0.00,,---,0.00,1021.00,VWS V14.01,2013-05-13 18:47:00,
2013-05-13 11:52:00,69.0,46.2,29.91,East,93,8.0,19.0,44,0.00,,---,0.00,327.00,VWS V14.01,2013-05-13 18:52:00,
2013-05-13 11:57:00,68.7,46.5,29.91,NE,53,11.0,19.0,45,0.00,,---,0.00,1081.00,VWS V14.01,2013-05-13 18:57:00,
2013-05-13 12:02:00,68.3,45.6,29.91,ENE,68,11.0,16.0,44,0.00,,---,0.00,891.00,VWS V14.01,2013-05-13 19:02:00,
2013-05-13 12:07:00,68.1,45.4,29.91,NE,34,11.0,18.0,44,0.00,,---,0.00,571.00,VWS V14.01,2013-05-13 19:07:00,
2013-05-13 12:12:00,67.7,45.0,29.90,ENE,65,5.0,22.0,44,0.00,,---,0.00,687.00,VWS V14.01,2013-05-13 19:12:00,
2013-05-13 12:17:00,67.7,45.0,29.91,East,82,10.0,22.0,44,0.00,,---,0.00,622.00,VWS V14.01,2013-05-13 19:17:00,
2013-05-13 12:22:00,67.0,44.4,29.91,NE,53,15.0,22.0,44,0.00,,---,0.00,443.00,VWS V14.01,2013-05-13 19:22:00,
2013-05-13 12:27:00,66.5,45.1,29.91,NE,46,13.0,22.0,46,0.00,,---,0.00,427.00,VWS V14.01,2013-05-13 19:27:00,
2013-05-13 12:32:00,66.7,44.7,29.91,NE,43,7.0,13.0,45,0.00,,---,0.00,323.00,VWS V14.01,2013-05-13 19:32:00,
2013-05-13 12:37:00,66.4,45.0,29.91,NE,47,16.0,19.0,46,0.00,,---,0.00,294.00,VWS V14.01,2013-05-13 19:37:00,
2013-05-13 12:42:00,65.8,44.5,29.91,NNE,23,7.0,19.0,46,0.00,,---,0.00,362.00,VWS V14.01,2013-05-13 19:42:00,
2013-05-13 12:47:00,65.8,45.0,29.91,NE,55,10.0,19.0,47,0.00,,---,0.00,297.00,VWS V14.01,2013-05-13 19:47:00,
2013-05-13 12:52:00,65.4,45.2,29.92,ENE,70,10.0,19.0,48,0.00,,---,0.00,387.00,VWS V14.01,2013-05-13 19:52:00,
2013-05-13 12:57:00,64.5,44.9,29.93,East,88,17.0,22.0,49,0.00,,---,0.00,343.00,VWS V14.01,2013-05-13 19:57:00,
2013-05-13 13:02:00,63.8,44.8,29.93,NE,38,18.0,18.0,50,0.00,,---,0.00,357.00,VWS V14.01,2013-05-13 20:02:00,
2013-05-13 13:07:00,63.7,44.2,29.93,ENE,71,13.0,22.0,49,0.00,,---,0.00,485.00,VWS V14.01,2013-05-13 20:07:00,
2013-05-13 13:12:00,63.2,43.2,29.93,ENE,69,16.0,26.0,48,0.00,,---,0.00,392.00,VWS V14.01,2013-05-13 20:12:00,
2013-05-13 13:17:00,62.9,42.4,29.94,ESE,117,10.0,26.0,47,0.00,,---,0.00,420.00,VWS V14.01,2013-05-13 20:17:00,
2013-05-13 13:22:00,62.5,41.5,29.93,East,101,16.0,26.0,46,0.00,,---,0.00,330.00,VWS V14.01,2013-05-13 20:22:00,
2013-05-13 13:27:00,62.9,41.8,29.93,NE,51,9.0,26.0,46,0.00,,---,0.00,489.00,VWS V14.01,2013-05-13 20:27:00,
2013-05-13 13:32:00,64.3,40.1,29.92,ESE,120,10.0,19.0,41,0.00,,---,0.00,1014.00,VWS V14.01,2013-05-13 20:32:00,
2013-05-13 13:37:00,65.0,40.8,29.92,East,89,18.0,23.0,41,0.00,,---,0.00,1000.00,VWS V14.01,2013-05-13 20:37:00,
2013-05-13 13:42:00,64.9,38.7,29.92,ENE,59,13.0,26.0,38,0.00,,---,0.00,979.00,VWS V14.01,2013-05-13 20:42:00,
2013-05-13 13:47:00,64.7,39.2,29.92,NE,52,16.0,31.0,39,0.00,,---,0.00,909.00,VWS V14.01,2013-05-13 20:47:00,
2013-05-13 13:52:00,64.4,38.9,29.93,ENE,67,15.0,31.0,39,0.00,,---,0.00,752.00,VWS V14.01,2013-05-13 20:52:00,
2013-05-13 13:57:00,64.3,38.8,29.92,ENE,70,25.0,31.0,39,0.00,,---,0.00,991.00,VWS V14.01,2013-05-13 20:57:00,
2013-05-13 14:02:00,63.6,39.5,29.93,NE,55,14.0,22.0,41,0.00,,---,0.00,888.00,VWS V14.01,2013-05-13 21:02:00,
2013-05-13 14:07:00,62.9,39.5,29.93,ENE,66,21.0,35.0,42,0.00,,---,0.00,867.00,VWS V14.01,2013-05-13 21:07:00,
2013-05-13 14:12:00,62.9,39.5,29.93,ESE,119,13.0,35.0,42,0.00,,---,0.00,888.00,VWS V14.01,2013-05-13 21:12:00,
2013-05-13 14:17:00,63.6,40.1,29.92,ENE,77,11.0,35.0,42,0.00,,---,0.00,710.00,VWS V14.01,2013-05-13 21:17:00,
2013-05-13 14:22:00,64.0,40.5,29.93,ENE,78,22.0,35.0,42,0.00,,---,0.00,958.00,VWS V14.01,2013-05-13 21:22:00,
2013-05-13 14:27:00,63.8,41.5,29.93,NE,54,6.0,35.0,44,0.00,,---,0.00,911.00,VWS V14.01,2013-05-13 21:27:00,
2013-05-13 14:32:00,64.2,40.7,29.93,NE,48,16.0,16.0,42,0.00,,---,0.00,624.00,VWS V14.01,2013-05-13 21:32:00,
2013-05-13 14:37:00,64.2,41.3,29.94,NNE,18,13.0,24.0,43,0.00,,---,0.00,884.00,VWS V14.01,2013-05-13 21:37:00,
2013-05-13 14:42:00,64.3,41.3,29.94,SSE,168,8.0,24.0,43,0.00,,---,0.00,844.00,VWS V14.01,2013-05-13 21:42:00,
2013-05-13 14:47:00,65.0,42.0,29.94,ENE,67,5.0,24.0,43,0.00,,---,0.00,882.00,VWS V14.01,2013-05-13 21:47:00,
2013-05-13 14:52:00,65.0,42.0,29.94,NE,40,8.0,28.0,43,0.00,,---,0.00,830.00,VWS V14.01,2013-05-13 21:52:00,
2013-05-13 14:57:00,65.4,41.7,29.94,ENE,74,13.0,28.0,42,0.00,,---,0.00,889.00,VWS V14.01,2013-05-13 21:57:00,
2013-05-13 15:02:00,65.8,42.7,29.94,ENE,61,8.0,14.0,43,0.00,,---,0.00,935.00,VWS V14.01,2013-05-13 22:02:00,
2013-05-13 15:07:00,66.2,41.8,29.94,ESE,119,14.0,23.0,41,0.00,,---,0.00,918.00,VWS V14.01,2013-05-13 22:07:00,
2013-05-13 15:12:00,66.1,43.0,29.95,ENE,62,7.0,23.0,43,0.00,,---,0.00,984.00,VWS V14.01,2013-05-13 22:12:00,
2013-05-13 15:17:00,66.5,43.9,29.95,NE,49,9.0,23.0,44,0.00,,---,0.00,1060.00,VWS V14.01,2013-05-13 22:17:00,
2013-05-13 15:22:00,65.5,41.8,29.96,ENE,62,28.0,28.0,42,0.00,,---,0.00,313.00,VWS V14.01,2013-05-13 22:22:00,
2013-05-13 15:27:00,65.0,42.6,29.97,ESE,110,15.0,28.0,44,0.00,,---,0.00,297.00,VWS V14.01,2013-05-13 22:27:00,
2013-05-13 15:32:00,64.7,42.9,29.97,ENE,69,15.0,17.0,45,0.00,,---,0.00,900.00,VWS V14.01,2013-05-13 22:32:00,
2013-05-13 15:37:00,65.1,43.3,29.97,ESE,117,9.0,19.0,45,0.00,,---,0.00,893.00,VWS V14.01,2013-05-13 22:37:00,
2013-05-13 15:42:00,65.3,41.0,29.98,East,89,18.0,23.0,41,0.00,,---,0.00,805.00,VWS V14.01,2013-05-13 22:42:00,
2013-05-13 15:47:00,64.9,41.3,29.97,ENE,64,13.0,23.0,42,0.00,,---,0.00,840.00,VWS V14.01,2013-05-13 22:47:00,
2013-05-13 15:52:00,64.7,40.5,29.97,ESE,109,10.0,23.0,41,0.00,,---,0.00,227.00,VWS V14.01,2013-05-13 22:52:00,
2013-05-13 15:57:00,64.3,41.9,29.97,ENE,66,12.0,23.0,44,0.00,,---,0.00,237.00,VWS V14.01,2013-05-13 22:57:00,
2013-05-13 16:02:00,63.6,41.3,29.98,SE,138,7.0,11.0,44,0.00,,---,0.00,856.00,VWS V14.01,2013-05-13 23:02:00,
2013-05-13 16:07:00,63.4,39.9,29.97,ESE,104,8.0,15.0,42,0.00,,---,0.00,183.00,VWS V14.01,2013-05-13 23:07:00,
2013-05-13 16:12:00,62.8,40.6,29.98,East,86,16.0,16.0,44,0.00,,---,0.00,162.00,VWS V14.01,2013-05-13 23:12:00,
2013-05-13 16:17:00,61.8,40.8,29.98,East,90,17.0,17.0,46,0.00,,---,0.00,178.00,VWS V14.01,2013-05-13 23:17:00,
2013-05-13 16:22:00,62.2,41.7,29.99,ENE,72,11.0,20.0,47,0.00,,---,0.00,165.00,VWS V14.01,2013-05-13 23:22:00,
2013-05-13 16:27:00,62.4,40.8,29.99,ESE,110,8.0,22.0,45,0.00,,---,0.00,712.00,VWS V14.01,2013-05-13 23:27:00,
2013-05-13 16:32:00,63.1,41.4,29.99,ESE,109,10.0,16.0,45,0.00,,---,0.00,659.00,VWS V14.01,2013-05-13 23:32:00,
2013-05-13 16:37:00,63.9,41.0,29.99,NE,56,8.0,16.0,43,0.00,,---,0.00,631.00,VWS V14.01,2013-05-13 23:37:00,
2013-05-13 16:42:00,63.9,41.0,29.99,SSE,149,10.0,17.0,43,0.00,,---,0.00,657.00,VWS V14.01,2013-05-13 23:42:00,
2013-05-13 16:47:00,63.8,40.3,30.00,East,82,15.0,23.0,42,0.00,,---,0.00,617.00,VWS V14.01,2013-05-13 23:47:00,
2013-05-13 16:52:00,62.9,40.1,30.00,ESE,107,18.0,36.0,43,0.00,,---,0.00,599.00,VWS V14.01,2013-05-13 23:52:00,
2013-05-13 16:57:00,62.4,40.2,29.99,East,79,11.0,36.0,44,0.00,,---,0.00,582.00,VWS V14.01,2013-05-13 23:57:00,
2013-05-13 17:02:00,62.5,39.7,29.99,ENE,60,17.0,17.0,43,0.00,,---,0.00,570.00,VWS V14.01,2013-05-14 00:02:00,
2013-05-13 17:07:00,62.4,39.6,30.00,East,100,6.0,25.0,43,0.00,,---,0.00,559.00,VWS V14.01,2013-05-14 00:07:00,
2013-05-13 17:12:00,62.7,39.3,30.00,ESE,105,14.0,25.0,42,0.00,,---,0.00,538.00,VWS V14.01,2013-05-14 00:12:00,
2013-05-13 17:17:00,62.6,38.6,30.01,NE,46,12.0,25.0,41,0.00,,---,0.00,526.00,VWS V14.01,2013-05-14 00:17:00,
2013-05-13 17:22:00,62.2,38.2,30.01,ENE,78,7.0,25.0,41,0.00,,---,0.00,510.00,VWS V14.01,2013-05-14 00:22:00,
2013-05-13 17:27:00,62.3,38.3,30.01,ENE,66,9.0,25.0,41,0.00,,---,0.00,487.00,VWS V14.01,2013-05-14 00:27:00,
2013-05-13 17:32:00,62.9,38.9,30.01,NNE,26,4.0,10.0,41,0.00,,---,0.00,483.00,VWS V14.01,2013-05-14 00:32:00,
2013-05-13 17:37:00,63.0,37.7,30.02,NE,46,14.0,25.0,39,0.00,,---,0.00,476.00,VWS V14.01,2013-05-14 00:37:00,
2013-05-13 17:42:00,62.6,38.0,30.02,ESE,119,10.0,25.0,40,0.00,,---,0.00,464.00,VWS V14.01,2013-05-14 00:42:00,
2013-05-13 17:47:00,62.7,38.0,30.02,East,97,16.0,25.0,40,0.00,,---,0.00,478.00,VWS V14.01,2013-05-14 00:47:00,
2013-05-13 17:52:00,62.2,38.8,30.02,ENE,66,9.0,25.0,42,0.00,,---,0.00,496.00,VWS V14.01,2013-05-14 00:52:00,
2013-05-13 17:57:00,62.0,38.0,30.02,SSE,165,8.0,25.0,41,0.00,,---,0.00,469.00,VWS V14.01,2013-05-14 00:57:00,
2013-05-13 18:02:00,62.0,38.0,30.02,NE,43,7.0,13.0,41,0.00,,---,0.00,452.00,VWS V14.01,2013-05-14 01:02:00,
2013-05-13 18:07:00,61.9,38.0,30.02,East,98,14.0,14.0,41,0.00,,---,0.00,132.00,VWS V14.01,2013-05-14 01:07:00,
2013-05-13 18:12:00,61.8,37.2,30.02,ENE,59,7.0,16.0,40,0.00,,---,0.00,406.00,VWS V14.01,2013-05-14 01:12:00,
2013-05-13 18:17:00,62.3,37.7,30.02,ESE,109,5.0,16.0,40,0.00,,---,0.00,383.00,VWS V14.01,2013-05-14 01:17:00,
2013-05-13 18:22:00,62.4,37.8,30.02,SE,131,3.0,16.0,40,0.00,,---,0.00,352.00,VWS V14.01,2013-05-14 01:22:00,
2013-05-13 18:27:00,62.5,38.5,30.02,ENE,76,5.0,16.0,41,0.00,,---,0.00,322.00,VWS V14.01,2013-05-14 01:27:00,
2013-05-13 18:32:00,62.4,37.1,30.02,SE,146,2.0,8.0,39,0.00,,---,0.00,306.00,VWS V14.01,2013-05-14 01:32:00,
2013-05-13 18:37:00,62.4,36.5,30.02,East,79,6.0,9.0,38,0.00,,---,0.00,243.00,VWS V14.01,2013-05-14 01:37:00,
2013-05-13 18:42:00,61.1,36.0,30.02,ESE,117,3.0,13.0,39,0.00,,---,0.00,246.00,VWS V14.01,2013-05-14 01:42:00,
2013-05-13 18:47:00,60.5,36.1,30.02,NE,42,10.0,14.0,40,0.00,,---,0.00,221.00,VWS V14.01,2013-05-14 01:47:00,
2013-05-13 18:52:00,59.6,35.9,30.02,East,85,5.0,14.0,41,0.00,,---,0.00,155.00,VWS V14.01,2013-05-14 01:52:00,
2013-05-13 18:57:00,58.9,35.9,30.01,East,86,7.0,14.0,42,0.00,,---,0.00,144.00,VWS V14.01,2013-05-14 01:57:00,
2013-05-13 19:01:00,58.5,36.1,30.01,East,98,5.0,10.0,43,0.00,,---,0.00,39.00,VWS V14.01,2013-05-14 02:01:00,
2013-05-13 19:06:00,57.9,36.1,30.01,SSE,156,1.0,13.0,44,0.00,,---,0.00,98.00,VWS V14.01,2013-05-14 02:06:00,
2013-05-13 19:11:00,57.6,35.9,30.01,ESE,103,5.0,13.0,44,0.00,,---,0.00,134.00,VWS V14.01,2013-05-14 02:11:00,
2013-05-13 19:16:00,57.5,35.2,30.02,NE,53,8.0,19.0,43,0.00,,---,0.00,98.00,VWS V14.01,2013-05-14 02:16:00,
2013-05-13 19:22:00,57.7,35.4,30.02,ENE,63,5.0,19.0,43,0.00,,---,0.00,49.00,VWS V14.01,2013-05-14 02:22:00,
2013-05-13 19:27:00,57.8,35.5,30.02,North,11,5.0,19.0,43,0.00,,---,0.00,88.00,VWS V14.01,2013-05-14 02:27:00,
2013-05-13 19:32:00,57.8,35.5,30.03,SSE,148,4.0,8.0,43,0.00,,---,0.00,77.00,VWS V14.01,2013-05-14 02:32:00,
2013-05-13 19:37:00,57.6,35.9,30.03,ESE,109,1.0,10.0,44,0.00,,---,0.00,65.00,VWS V14.01,2013-05-14 02:37:00,
2013-05-13 19:42:00,57.3,35.6,30.03,SE,137,5.0,10.0,44,0.00,,---,0.00,53.00,VWS V14.01,2013-05-14 02:42:00,
2013-05-13 19:47:00,56.8,35.7,30.03,SE,146,2.0,10.0,45,0.00,,---,0.00,40.00,VWS V14.01,2013-05-14 02:47:00,
2013-05-13 19:52:00,56.2,35.7,30.03,East,80,3.0,10.0,46,0.00,,---,0.00,19.00,VWS V14.01,2013-05-14 02:52:00,
2013-05-13 19:57:00,55.6,35.2,30.04,East,96,5.0,10.0,46,0.00,,---,0.00,18.00,VWS V14.01,2013-05-14 02:57:00,
2013-05-13 20:02:00,55.0,35.7,30.04,SE,134,3.0,6.0,48,0.00,,---,0.00,14.00,VWS V14.01,2013-05-14 03:02:00,
2013-05-13 20:07:00,54.5,35.8,30.04,East,80,6.0,6.0,49,0.00,,---,0.00,12.00,VWS V14.01,2013-05-14 03:07:00,
2013-05-13 20:12:00,54.1,35.9,30.04,East,91,3.0,10.0,50,0.00,,---,0.00,11.00,VWS V14.01,2013-05-14 03:12:00,
2013-05-13 20:17:00,53.6,35.4,30.04,ENE,74,8.0,10.0,50,0.00,,---,0.00,7.00,VWS V14.01,2013-05-14 03:17:00,
2013-05-13 20:22:00,53.3,35.7,30.04,East,83,8.0,13.0,51,0.00,,---,0.00,0.00,VWS V14.01,2013-05-14 03:22:00,
2013-05-13 20:27:00,53.1,35.5,30.04,NNE,32,10.0,13.0,51,0.00,,---,0.00,0.00,VWS V14.01,2013-05-14 03:27:00,
2013-05-13 20:32:00,52.8,35.2,30.04,East,92,6.0,12.0,51,0.00,,---,0.00,0.00,VWS V14.01,2013-05-14 03:32:00,
2013-05-13 20:37:00,52.7,35.6,30.05,NE,39,7.0,16.0,52,0.00,,---,0.00,0.00,VWS V14.01,2013-05-14 03:37:00,
2013-05-13 20:42:00,52.4,35.8,30.05,East,80,1.0,16.0,53,0.00,,---,0.00,0.00,VWS V14.01,2013-05-14 03:42:00,
2013-05-13 20:47:00,52.3,36.2,30.05,ENE,74,3.0,16.0,54,0.00,,---,0.00,0.00,VWS V14.01,2013-05-14 03:47:00,
2013-05-13 20:51:00,52.1,36.0,30.06,ENE,61,3.0,16.0,54,0.00,,---,0.00,0.00,VWS V14.01,2013-05-14 03:51:00,
2013-05-13 20:56:00,51.8,35.7,30.06,ENE,73,1.0,16.0,54,0.00,,---,0.00,0.00,VWS V14.01,2013-05-14 03:56:00,
2013-05-13 21:01:00,51.7,36.1,30.06,ENE,65,7.0,7.0,55,0.00,,---,0.00,0.00,VWS V14.01,2013-05-14 04:01:00,
2013-05-13 21:06:00,51.5,35.4,30.06,NE,55,4.0,8.0,54,0.00,,---,0.00,0.00,VWS V14.01,2013-05-14 04:06:00,
2013-05-13 21:11:00,51.4,36.2,30.06,East,92,0.0,8.0,56,0.00,,---,0.00,0.00,VWS V14.01,2013-05-14 04:11:00,
2013-05-13 21:16:00,51.3,36.2,30.06,North,11,1.0,8.0,56,0.00,,---,0.00,0.00,VWS V14.01,2013-05-14 04:16:00,
2013-05-13 21:21:00,50.9,35.8,30.06,NNW,347,3.0,8.0,56,0.00,,---,0.00,0.00,VWS V14.01,2013-05-14 04:21:00,
2013-05-13 21:26:00,50.7,35.6,30.07,WSW,238,0.0,8.0,56,0.00,,---,0.00,0.00,VWS V14.01,2013-05-14 04:26:00,
2013-05-13 21:31:00,50.5,35.4,30.07,North,5,0.0,2.0,56,0.00,,---,0.00,0.00,VWS V14.01,2013-05-14 04:31:00,
2013-05-13 21:36:00,50.3,36.1,30.06,NE,46,1.0,2.0,58,0.00,,---,0.00,0.00,VWS V14.01,2013-05-14 04:36:00,
2013-05-13 21:41:00,50.1,35.9,30.07,ENE,58,4.0,5.0,58,0.00,,---,0.00,0.00,VWS V14.01,2013-05-14 04:41:00,
2013-05-13 21:46:00,50.0,35.8,30.07,NE,39,3.0,5.0,58,0.00,,---,0.00,0.00,VWS V14.01,2013-05-14 04:46:00,
2013-05-13 21:51:00,49.9,35.7,30.07,ENE,67,4.0,8.0,58,0.00,,---,0.00,0.00,VWS V14.01,2013-05-14 04:51:00,
2013-05-13 21:56:00,49.9,35.7,30.07,ENE,64,3.0,8.0,58,0.00,,---,0.00,0.00,VWS V14.01,2013-05-14 04:56:00,
2013-05-13 22:01:00,49.9,36.2,30.07,East,90,2.0,2.0,59,0.00,,---,0.00,0.00,VWS V14.01,2013-05-14 05:01:00,
2013-05-13 22:06:00,49.8,36.1,30.07,ENE,57,2.0,3.0,59,0.00,,---,0.00,0.00,VWS V14.01,2013-05-14 05:06:00,
2013-05-13 22:11:00,49.7,36.0,30.08,ENE,57,0.0,3.0,59,0.00,,---,0.00,0.00,VWS V14.01,2013-05-14 05:11:00,
2013-05-13 22:16:00,49.4,35.7,30.08,ENE,57,2.0,3.0,59,0.00,,---,0.00,0.00,VWS V14.01,2013-05-14 05:16:00,
2013-05-13 22:21:00,48.6,35.8,30.08,SW,232,3.0,3.0,61,0.00,,---,0.00,0.00,VWS V14.01,2013-05-14 05:21:00,
2013-05-13 22:26:00,48.1,36.5,30.07,SW,226,3.0,4.0,64,0.00,,---,0.00,0.00,VWS V14.01,2013-05-14 05:26:00,
2013-05-13 22:31:00,47.7,36.9,30.08,SW,217,0.0,0.0,66,0.00,,---,0.00,0.00,VWS V14.01,2013-05-14 05:31:00,
2013-05-13 22:36:00,47.4,37.0,30.08,SW,236,3.0,4.0,67,0.00,,---,0.00,0.00,VWS V14.01,2013-05-14 05:36:00,
2013-05-13 22:41:00,47.3,36.9,30.08,SW,235,4.0,4.0,67,0.00,,---,0.00,0.00,VWS V14.01,2013-05-14 05:41:00,
2013-05-13 22:46:00,47.0,37.0,30.07,East,84,1.0,5.0,68,0.00,,---,0.00,0.00,VWS V14.01,2013-05-14 05:46:00,
2013-05-13 22:51:00,47.0,36.6,30.07,West,271,0.0,5.0,67,0.00,,---,0.00,0.00,VWS V14.01,2013-05-14 05:51:00,
2013-05-13 22:56:00,46.9,36.9,30.07,NNW,344,0.0,5.0,68,0.00,,---,0.00,0.00,VWS V14.01,2013-05-14 05:56:00,
2013-05-13 23:01:00,46.7,36.3,30.07,SSW,204,0.0,0.0,67,0.00,,---,0.00,0.00,VWS V14.01,2013-05-14 06:01:00,
2013-05-13 23:06:00,46.6,36.6,30.08,East,97,0.0,2.0,68,0.00,,---,0.00,0.00,VWS V14.01,2013-05-14 06:06:00,
2013-05-13 23:11:00,46.4,36.0,30.08,East,97,0.0,2.0,67,0.00,,---,0.00,0.00,VWS V14.01,2013-05-14 06:11:00,
2013-05-13 23:16:00,46.1,35.8,30.07,ENE,61,2.0,5.0,67,0.00,,---,0.00,0.00,VWS V14.01,2013-05-14 06:16:00,
2013-05-13 23:21:00,46.4,35.7,30.07,ENE,59,2.0,5.0,66,0.00,,---,0.00,0.00,VWS V14.01,2013-05-14 06:21:00,
2013-05-13 23:26:00,46.7,35.6,30.08,ENE,76,8.0,8.0,65,0.00,,---,0.00,0.00,VWS V14.01,2013-05-14 06:26:00,
2013-05-13 23:31:00,46.9,35.0,30.07,NNE,21,5.0,6.0,63,0.00,,---,0.00,0.00,VWS V14.01,2013-05-14 06:31:00,
2013-05-13 23:36:00,47.3,35.4,30.08,NNW,342,12.0,12.0,63,0.00,,---,0.00,0.00,VWS V14.01,2013-05-14 06:36:00,
2013-05-13 23:41:00,47.6,34.8,30.07,NNE,15,3.0,12.0,61,0.00,,---,0.00,0.00,VWS V14.01,2013-05-14 06:41:00,
2013-05-13 23:46:00,47.6,35.2,30.07,NNW,338,1.0,12.0,62,0.00,,---,0.00,0.00,VWS V14.01,2013-05-14 06:46:00,
2013-05-13 23:51:00,47.5,35.5,30.07,NNW,331,0.0,12.0,63,0.00,,---,0.00,0.00,VWS V14.01,2013-05-14 06:51:00,
2013-05-13 23:56:00,47.1,36.7,30.08,NW,308,4.0,12.0,67,0.00,,---,0.00,0.00,VWS V14.01,2013-05-14 06:56:00,